sat.trackr.live / text

‹ back to catalog

STARLINK-30535

NORAD 58001 · 2023-153L

PAYLOAD ACTIVE UNKNOWN

§ Identity

Operator
Country
US
Launch date
2023-10-05
Launch site
AFETR
Launch vehicle
Mass (kg)
RCS (m²)

Purposes: comms

External: N2YO · Heavens-Above · Gunter

§ Orbital elements

Epoch: 2026-09-19T21:47:20.385312Z

Period
94.27 min
Inclination
43.0021°
Eccentricity
0.0001381
Mean motion
15.27577255 rev/d
Perigee alt
482.1 km
Apogee alt
484.0 km
Semi-major
6,861.2 km
B*
1.8922e-5
RAAN
49.8587°
Arg perigee
271.2304°
Mean anomaly
88.8389°
Rev number
16,460

§ Raw data

STARLINK-305351 58001U 23153L   26262.90787483  .00000259  00000+0  18922-4 0  99932 58001  43.0021  49.8587 0001381 271.2304  88.8389 15.27577255164606

JSON: /api/v1/satellites/58001 · /tle

For live sub-satellite position, see the globe view (requires WebGL).

§ Visibility from observer

Set your observer location to see the next 7 days of passes ≥ 10°. The values pass through the URL so the page stays shareable.

No JS? Fill the form by hand. The geolocation button needs JavaScript.